CDT,Max TemperatureF,Mean TemperatureF,Min TemperatureF,Max Dew PointF,MeanDew PointF,Min DewpointF,Max Humidity, Mean Humidity, Min Humidity, Max Sea Level PressureIn, Mean Sea Level PressureIn, Min Sea Level PressureIn, Max VisibilityMiles, Mean VisibilityMiles, Min VisibilityMiles, Max Wind SpeedMPH, Mean Wind SpeedMPH, Max Gust SpeedMPH,PrecipitationIn, CloudCover, Events, WindDirDegrees
2013-10-1,84,73,62,68,62,59,100,78,48,29.97,29.93,29.86,10,9,3,17,10,23,0.00,2,,204
2013-10-2,84,72,59,66,62,59,100,74,45,30.05,29.98,29.92,10,8,0,12,3,16,0.00,2,Fog-Rain,165
2013-10-3,77,72,66,70,67,64,100,86,69,29.92,29.87,29.79,10,10,5,14,8,20,0.01,3,Rain,174
2013-10-4,87,78,68,72,67,63,100,75,45,29.91,29.87,29.83,10,10,6,15,9,23,0.00,2,,178
2013-10-5,75,62,48,70,59,43,94,83,67,29.91,29.87,29.84,10,10,9,15,10,22,0.00,3,Rain,217
2013-10-6,50,46,41,46,42,37,100,84,71,29.87,29.81,29.77,10,10,3,17,7,23,0.05,5,Rain,239
2013-10-7,71,58,46,48,47,43,100,72,35,30.10,30.01,29.87,10,10,8,15,8,21,0.00,2,,250
2013-10-8,77,62,48,50,47,45,87,60,32,30.16,30.11,30.08,10,10,9,14,7,23,0.00,0,,189
2013-10-9,73,60,46,50,47,41,100,63,31,30.18,30.12,30.08,10,10,9,12,5,14,0.00,0,,133
2013-10-10,77,62,46,55,52,46,100,72,41,30.13,30.06,29.97,10,10,5,13,3,21,0.00,0,,146
2013-10-11,78,66,55,59,56,54,94,68,42,29.99,29.92,29.84,10,10,10,18,9,26,0.00,2,,152
2013-10-12,71,61,51,61,47,36,88,57,28,30.22,30.04,29.88,10,10,9,15,9,22,0.00,2,,285
2013-10-13,68,54,39,39,35,28,87,53,24,30.42,30.35,30.23,10,10,2,8,3,15,0.00,0,,14
2013-10-14,68,55,42,48,39,32,81,54,35,30.37,30.22,30.00,10,10,10,21,9,24,0.00,1,,111
2013-10-15,66,58,50,61,51,39,100,75,43,29.99,29.90,29.83,10,9,2,18,13,24,0.17,5,Rain,226
2013-10-16,53,50,48,43,42,39,76,72,66,30.01,29.98,29.95,10,10,10,18,12,29,0.00,8,,271
2013-10-17,64,54,44,45,40,34,93,66,32,29.98,29.91,29.85,10,10,9,16,7,23,0.00,3,Rain,234
2013-10-18,53,47,41,43,37,34,100,73,50,30.04,29.99,29.90,10,10,10,14,8,21,0.00,5,,275
2013-10-19,57,46,35,39,36,32,93,70,38,29.99,29.91,29.84,10,10,10,21,11,29,0.00,3,,231
2013-10-20,69,56,42,48,41,37,87,64,33,29.87,29.81,29.72,10,10,9,18,7,25,0.00,5,Rain,221
2013-10-21,57,47,37,43,31,23,81,59,35,30.05,30.00,29.88,10,10,10,20,10,26,0.00,4,,297
2013-10-22,48,44,37,45,37,32,93,84,70,30.02,29.93,29.82,10,9,4,13,4,20,0.15,8,Rain,309
2013-10-23,44,38,32,36,31,25,100,76,46,30.11,30.07,30.02,10,10,10,15,7,21,0.00,6,,286
2013-10-24,42,36,28,36,26,23,93,67,46,30.39,30.26,30.11,10,10,9,15,9,23,0.00,6,Rain,301
2013-10-25,55,40,26,30,26,21,100,61,26,30.45,30.32,30.12,10,10,10,20,7,24,0.00,0,,226
2013-10-26,55,45,35,36,28,23,70,51,29,30.15,30.06,29.98,10,10,10,22,12,30,0.00,1,,273
2013-10-27,59,42,26,32,29,25,100,61,31,30.12,30.04,29.96,10,10,10,14,4,18,0.00,0,,212
2013-10-28,66,50,33,36,32,30,93,57,26,30.25,30.15,30.03,10,10,2,13,3,12,0.00,0,,95
2013-10-29,55,48,41,54,45,36,100,84,62,30.25,30.14,30.05,10,6,1,14,10,17,0.00,5,Rain,99
2013-10-30,64,58,53,64,58,54,100,99,94,30.05,29.92,29.71,10,3,0,20,8,25,1.25,8,Fog-Rain,128
2013-10-31,64,54,44,63,53,43,100,95,87,29.71,29.54,29.42,10,9,2,17,11,26,0.66,7,Rain,250